Portada
METAR-TAF:

METAR-TAF

Aeroports :

Bombai, Índia

latitud: 19-05-53N, longitud: 072-50-02E, altitud: 4 m

Observació

L'informe es va fer fa 5 hores i 55 minuts, a les 12:30 UTC
Vent 6 kt del Oest
Temperatura 29°C
Humitat 66%
Pressió 1012 hPa
Visibilitat: 2500 m
calitja

METAR: VAJJ 221230Z 28006KT 2500 HZ NSC 29/22 Q1012 NOSIG

Hora: 23:55 (18:25 UTC)


TAF: manca

Observacions i pronòstics meteorològics de més de 4000 aeroports (METAR i TAF).

Les estacions disponibles són els punts grocs i vermells al mapa.

Posi el ratolí al punt desitjat per veure el nom de l'estació.

Feu clic per veure les observacions i els pronòstics meteorològics.

Per canviar el mapa: feu clic els botons verds amb una creu de color negre per apropar; al botó verd amb un guió per allunyar la imatge; o en les fletxes verdes per a mapes adjacents.


METAR-TAF: